Showing default

ICEYE X78, 68995

AKA "ICEYE-X78" on Space-Track | Orbit data source: Space-Track

ICEYE X78, 68995 is a Polish payload satellite in SSO that was launched on Sun, 03 May 2026 UTC via an FALCON 9 launch vehicle from the Air Force Western Test Range (AFWTR). Payload-class satellites include a variety of spacecraft equipped with specific instruments for various scientific and technological missions. These include communications satellites like Starlink; space stations such as the ISS; scientific satellites like the Hubble; Earth observation satellites from companies like Planet Labs, Umbra, and HawkEye 360; GPS; miniature CubeSats for education and research; and military/defense satellites.

Loading next visibility...
Identifier
68995, 2026-100R
Orbit
SSO
Country
Flag of PLPL / POL
Related business
Manufacturer
ICEYE
Mission
Operational spacecraft
Bus & Motor
ICEYE, Unknown motor
Mass
120 kg wet, 120 kg dry
Launch date (UTC)
2026-05-03 (2 months ago)
Launch vehicle
FALCON 9
Launch site
Air Force Western Test Range (AFWTR)
Object type
Payload
Rocket body
Debris
Shape & HBR
Unknown shape, 14.5 m
Radar Cross Section
Medium (>0.1 m² and <1 m²)

Expand to show TLE details & history
Last TLE update: 1 day ago

TLE from 1 day ago
0 ICEYE X78
1 68995U 26100R   26175.05138437  .00001889  00000-0  19292-3 0  9990
2 68995  97.7363  72.3796 0004133  96.6645 263.5044 14.91779032  7728
Epoch: 2026-06-24T01:13Z
TLE epoch observation values (Epoch: 2026-06-24T01:13:59.609Z)
Latitude
-0.00006°
Longitude
141.66709°
Altitude
595.758 km
Speed
7.562 km/s
True Right ascension
04h 49m 31s
True Declination
0° 00' 00"
Sunlit
Object was in daylight at epoch
Visualization orbit readout
Latitude
Unknown
Longitude
Unknown
Altitude
Unknown
Speed
Unknown
Apparent Right ascension
Unknown
Apparent Declination
Unknown
Sunlit
N/A
Visualization observer readout
Local Sidereal Time
16:59:19
Azimuth
Unknown
Elevation
Unknown
Doppler factor
Unknown
Orbital elements
Apogee altitude
592.286 km
Perigee altitude
586.526 km
Semi-major axis
6,967.543 km
Eccentricity
0.00041
Inclination
97.7363°
RAAN
72.3796°
Arg. of periapsis
96.6645°
True anomaly
263.45735°
Mean anomaly
263.5044°
Eccentric anomaly
263.48087°
Mean motion
3.73185 °/min
Orbital period
96.47 mins
BSTAR
0.00019292
Loading maneuver chart data...
Computing Atmospheric mass density...
Loading historical data...
Loading historical data...
Loading historical data...
Loading historical data...
Loading historical data...
Loading historical data...
Loading historical data...

Documentation

Showing up to 5 results
|